site,time,unit,value
Garngoch,2024-04-30T00:05:00+01:00,MW,4.786000000000001
Garngoch,2024-04-30T00:10:00+01:00,MW,4.744000000000001
Garngoch,2024-04-30T00:15:00+01:00,MW,4.577
Garngoch,2024-04-30T00:20:00+01:00,MW,4.603000000000001
Garngoch,2024-04-30T00:25:00+01:00,MW,4.534999999999999
Garngoch,2024-04-30T00:30:00+01:00,MW,4.5249999999999995
Garngoch,2024-04-30T00:35:00+01:00,MW,4.456
Garngoch,2024-04-30T00:40:00+01:00,MW,4.328
Garngoch,2024-04-30T00:45:00+01:00,MW,4.349
Garngoch,2024-04-30T00:50:00+01:00,MW,4.241
Garngoch,2024-04-30T00:55:00+01:00,MW,4.225999999999999
Garngoch,2024-04-30T01:00:00+01:00,MW,4.185
Garngoch,2024-04-30T01:05:00+01:00,MW,4.274
Garngoch,2024-04-30T01:10:00+01:00,MW,4.266
Garngoch,2024-04-30T01:15:00+01:00,MW,4.316
Garngoch,2024-04-30T01:20:00+01:00,MW,4.239
Garngoch,2024-04-30T01:25:00+01:00,MW,4.144
Garngoch,2024-04-30T01:30:00+01:00,MW,4.221
Garngoch,2024-04-30T01:35:00+01:00,MW,4.244
Garngoch,2024-04-30T01:40:00+01:00,MW,4.3149999999999995
Garngoch,2024-04-30T01:45:00+01:00,MW,4.302
Garngoch,2024-04-30T01:50:00+01:00,MW,4.28
Garngoch,2024-04-30T01:55:00+01:00,MW,4.227
Garngoch,2024-04-30T02:00:00+01:00,MW,4.297
Garngoch,2024-04-30T02:05:00+01:00,MW,4.242
Garngoch,2024-04-30T02:10:00+01:00,MW,4.205
Garngoch,2024-04-30T02:15:00+01:00,MW,4.218
Garngoch,2024-04-30T02:20:00+01:00,MW,4.208000000000001
Garngoch,2024-04-30T02:25:00+01:00,MW,4.265
Garngoch,2024-04-30T02:30:00+01:00,MW,4.156
Garngoch,2024-04-30T02:35:00+01:00,MW,4.091
Garngoch,2024-04-30T02:40:00+01:00,MW,4.12
Garngoch,2024-04-30T02:45:00+01:00,MW,4.031000000000001
Garngoch,2024-04-30T02:50:00+01:00,MW,4.007
Garngoch,2024-04-30T02:55:00+01:00,MW,4.041
Garngoch,2024-04-30T03:00:00+01:00,MW,3.996
Garngoch,2024-04-30T03:05:00+01:00,MW,3.9800000000000004
Garngoch,2024-04-30T03:10:00+01:00,MW,4.002000000000001
Garngoch,2024-04-30T03:15:00+01:00,MW,3.9989999999999997
Garngoch,2024-04-30T03:20:00+01:00,MW,3.9720000000000004
Garngoch,2024-04-30T03:25:00+01:00,MW,4.082
Garngoch,2024-04-30T03:30:00+01:00,MW,4.03
Garngoch,2024-04-30T03:35:00+01:00,MW,4.01
Garngoch,2024-04-30T03:40:00+01:00,MW,3.9309999999999996
Garngoch,2024-04-30T03:45:00+01:00,MW,3.925
Garngoch,2024-04-30T03:50:00+01:00,MW,3.884
Garngoch,2024-04-30T03:55:00+01:00,MW,3.9059999999999997
Garngoch,2024-04-30T04:00:00+01:00,MW,3.9229999999999996
Garngoch,2024-04-30T04:05:00+01:00,MW,3.87
Garngoch,2024-04-30T04:10:00+01:00,MW,3.8560000000000003
Garngoch,2024-04-30T04:15:00+01:00,MW,3.7900000000000005
Garngoch,2024-04-30T04:20:00+01:00,MW,3.85
Garngoch,2024-04-30T04:25:00+01:00,MW,3.8920000000000003
Garngoch,2024-04-30T04:30:00+01:00,MW,3.8649999999999998
Garngoch,2024-04-30T04:35:00+01:00,MW,3.852
Garngoch,2024-04-30T04:40:00+01:00,MW,3.868
Garngoch,2024-04-30T04:45:00+01:00,MW,3.9079999999999995
Garngoch,2024-04-30T04:50:00+01:00,MW,3.9059999999999997
Garngoch,2024-04-30T04:55:00+01:00,MW,3.899
Garngoch,2024-04-30T05:00:00+01:00,MW,3.89
Garngoch,2024-04-30T05:05:00+01:00,MW,3.948
Garngoch,2024-04-30T05:10:00+01:00,MW,4.008
Garngoch,2024-04-30T05:15:00+01:00,MW,4.0360000000000005
Garngoch,2024-04-30T05:20:00+01:00,MW,4.086
Garngoch,2024-04-30T05:25:00+01:00,MW,4.067
Garngoch,2024-04-30T05:30:00+01:00,MW,4.067
Garngoch,2024-04-30T05:35:00+01:00,MW,4.101
Garngoch,2024-04-30T05:40:00+01:00,MW,4.141
Garngoch,2024-04-30T05:45:00+01:00,MW,4.176
Garngoch,2024-04-30T05:50:00+01:00,MW,4.271
Garngoch,2024-04-30T05:55:00+01:00,MW,4.441000000000001
Garngoch,2024-04-30T06:00:00+01:00,MW,4.491
Garngoch,2024-04-30T06:05:00+01:00,MW,4.511
Garngoch,2024-04-30T06:10:00+01:00,MW,4.6499999999999995
Garngoch,2024-04-30T06:15:00+01:00,MW,4.671
Garngoch,2024-04-30T06:20:00+01:00,MW,4.827999999999999
Garngoch,2024-04-30T06:25:00+01:00,MW,4.801
Garngoch,2024-04-30T06:30:00+01:00,MW,4.852
Garngoch,2024-04-30T06:35:00+01:00,MW,5.034999999999999
Garngoch,2024-04-30T06:40:00+01:00,MW,5.172
Garngoch,2024-04-30T06:45:00+01:00,MW,5.247999999999999
Garngoch,2024-04-30T06:50:00+01:00,MW,5.279
Garngoch,2024-04-30T06:55:00+01:00,MW,5.528
Garngoch,2024-04-30T07:00:00+01:00,MW,5.654
Garngoch,2024-04-30T07:05:00+01:00,MW,5.723
Garngoch,2024-04-30T07:10:00+01:00,MW,5.819000000000001
Garngoch,2024-04-30T07:15:00+01:00,MW,5.996
Garngoch,2024-04-30T07:20:00+01:00,MW,6.021
Garngoch,2024-04-30T07:25:00+01:00,MW,6.061999999999999
Garngoch,2024-04-30T07:30:00+01:00,MW,6.296000000000001
Garngoch,2024-04-30T07:35:00+01:00,MW,6.457000000000001
Garngoch,2024-04-30T07:40:00+01:00,MW,6.603
Garngoch,2024-04-30T07:45:00+01:00,MW,6.733
Garngoch,2024-04-30T07:50:00+01:00,MW,6.787
Garngoch,2024-04-30T07:55:00+01:00,MW,6.738
Garngoch,2024-04-30T08:00:00+01:00,MW,6.752999999999999
Garngoch,2024-04-30T08:05:00+01:00,MW,7.023999999999999
Garngoch,2024-04-30T08:10:00+01:00,MW,6.992
Garngoch,2024-04-30T08:15:00+01:00,MW,7.106999999999999
Garngoch,2024-04-30T08:20:00+01:00,MW,7.032
Garngoch,2024-04-30T08:25:00+01:00,MW,7.005999999999999
Garngoch,2024-04-30T08:30:00+01:00,MW,7.0409999999999995
Garngoch,2024-04-30T08:35:00+01:00,MW,7.226
Garngoch,2024-04-30T08:40:00+01:00,MW,7.052
Garngoch,2024-04-30T08:45:00+01:00,MW,7.122
Garngoch,2024-04-30T08:50:00+01:00,MW,7.048
Garngoch,2024-04-30T08:55:00+01:00,MW,7.191000000000001
Garngoch,2024-04-30T09:00:00+01:00,MW,7.386000000000001
Garngoch,2024-04-30T09:05:00+01:00,MW,7.398
Garngoch,2024-04-30T09:10:00+01:00,MW,7.458
Garngoch,2024-04-30T09:15:00+01:00,MW,7.549
Garngoch,2024-04-30T09:20:00+01:00,MW,7.484999999999999
Garngoch,2024-04-30T09:25:00+01:00,MW,7.277000000000001
Garngoch,2024-04-30T09:30:00+01:00,MW,7.276
Garngoch,2024-04-30T09:35:00+01:00,MW,7.235000000000001
Garngoch,2024-04-30T09:40:00+01:00,MW,7.257000000000001
Garngoch,2024-04-30T09:45:00+01:00,MW,7.292000000000001
Garngoch,2024-04-30T09:50:00+01:00,MW,7.231999999999999
Garngoch,2024-04-30T09:55:00+01:00,MW,7.24
Garngoch,2024-04-30T10:00:00+01:00,MW,7.085000000000001
Garngoch,2024-04-30T10:05:00+01:00,MW,7.126
Garngoch,2024-04-30T10:10:00+01:00,MW,7.186999999999999
Garngoch,2024-04-30T10:15:00+01:00,MW,7.41
Garngoch,2024-04-30T10:20:00+01:00,MW,7.507999999999999
Garngoch,2024-04-30T10:25:00+01:00,MW,7.38
Garngoch,2024-04-30T10:30:00+01:00,MW,7.318
Garngoch,2024-04-30T10:35:00+01:00,MW,7.324999999999999
Garngoch,2024-04-30T10:40:00+01:00,MW,7.433
Garngoch,2024-04-30T10:45:00+01:00,MW,7.084
Garngoch,2024-04-30T10:50:00+01:00,MW,7.066000000000001
Garngoch,2024-04-30T10:55:00+01:00,MW,7.448
Garngoch,2024-04-30T11:00:00+01:00,MW,7.321999999999999
Garngoch,2024-04-30T11:05:00+01:00,MW,7.353999999999999
Garngoch,2024-04-30T11:10:00+01:00,MW,7.522
Garngoch,2024-04-30T11:15:00+01:00,MW,7.581999999999999
Garngoch,2024-04-30T11:20:00+01:00,MW,7.601
Garngoch,2024-04-30T11:25:00+01:00,MW,7.542999999999999
Garngoch,2024-04-30T11:30:00+01:00,MW,7.434
Garngoch,2024-04-30T11:35:00+01:00,MW,7.514
Garngoch,2024-04-30T11:40:00+01:00,MW,7.611
Garngoch,2024-04-30T11:45:00+01:00,MW,7.559999999999999
Garngoch,2024-04-30T11:50:00+01:00,MW,7.787
Garngoch,2024-04-30T11:55:00+01:00,MW,7.843999999999999
Garngoch,2024-04-30T12:00:00+01:00,MW,7.746
Garngoch,2024-04-30T12:05:00+01:00,MW,7.623
Garngoch,2024-04-30T12:10:00+01:00,MW,7.69
Garngoch,2024-04-30T12:15:00+01:00,MW,7.7909999999999995
Garngoch,2024-04-30T12:20:00+01:00,MW,7.760000000000001
Garngoch,2024-04-30T12:25:00+01:00,MW,8.011000000000001
Garngoch,2024-04-30T12:30:00+01:00,MW,7.845000000000001
Garngoch,2024-04-30T12:35:00+01:00,MW,7.813000000000001
Garngoch,2024-04-30T12:40:00+01:00,MW,7.866
Garngoch,2024-04-30T12:45:00+01:00,MW,7.930999999999999
Garngoch,2024-04-30T12:50:00+01:00,MW,7.903999999999999
Garngoch,2024-04-30T12:55:00+01:00,MW,7.788
Garngoch,2024-04-30T13:00:00+01:00,MW,7.835
Garngoch,2024-04-30T13:05:00+01:00,MW,7.9399999999999995
Garngoch,2024-04-30T13:10:00+01:00,MW,8.119
Garngoch,2024-04-30T13:15:00+01:00,MW,8.041
Garngoch,2024-04-30T13:20:00+01:00,MW,7.871
Garngoch,2024-04-30T13:25:00+01:00,MW,7.752
Garngoch,2024-04-30T13:30:00+01:00,MW,7.726
Garngoch,2024-04-30T13:35:00+01:00,MW,7.602
Garngoch,2024-04-30T13:40:00+01:00,MW,7.625
Garngoch,2024-04-30T13:45:00+01:00,MW,7.718999999999999
Garngoch,2024-04-30T13:50:00+01:00,MW,7.8340000000000005
Garngoch,2024-04-30T13:55:00+01:00,MW,7.8629999999999995
Garngoch,2024-04-30T14:00:00+01:00,MW,7.707000000000001
Garngoch,2024-04-30T14:05:00+01:00,MW,7.654
Garngoch,2024-04-30T14:10:00+01:00,MW,7.4430000000000005
Garngoch,2024-04-30T14:15:00+01:00,MW,7.439
Garngoch,2024-04-30T14:20:00+01:00,MW,7.56
Garngoch,2024-04-30T14:25:00+01:00,MW,7.5889999999999995
Garngoch,2024-04-30T14:30:00+01:00,MW,7.764
Garngoch,2024-04-30T14:35:00+01:00,MW,7.75
Garngoch,2024-04-30T14:40:00+01:00,MW,7.599
Garngoch,2024-04-30T14:45:00+01:00,MW,7.631
Garngoch,2024-04-30T14:50:00+01:00,MW,7.588
Garngoch,2024-04-30T14:55:00+01:00,MW,7.434
Garngoch,2024-04-30T15:00:00+01:00,MW,7.408
Garngoch,2024-04-30T15:05:00+01:00,MW,7.5120000000000005
Garngoch,2024-04-30T15:10:00+01:00,MW,7.358
Garngoch,2024-04-30T15:15:00+01:00,MW,7.2989999999999995
Garngoch,2024-04-30T15:20:00+01:00,MW,7.33
Garngoch,2024-04-30T15:25:00+01:00,MW,7.389
Garngoch,2024-04-30T15:30:00+01:00,MW,7.425
Garngoch,2024-04-30T15:35:00+01:00,MW,7.597999999999999
Garngoch,2024-04-30T15:40:00+01:00,MW,7.745000000000001
Garngoch,2024-04-30T15:45:00+01:00,MW,7.8549999999999995
Garngoch,2024-04-30T15:50:00+01:00,MW,7.698
Garngoch,2024-04-30T15:55:00+01:00,MW,7.7219999999999995
Garngoch,2024-04-30T16:00:00+01:00,MW,7.836999999999999
Garngoch,2024-04-30T16:05:00+01:00,MW,7.847
Garngoch,2024-04-30T16:10:00+01:00,MW,7.735
Garngoch,2024-04-30T16:15:00+01:00,MW,7.727
Garngoch,2024-04-30T16:20:00+01:00,MW,7.632
Garngoch,2024-04-30T16:25:00+01:00,MW,7.605
Garngoch,2024-04-30T16:30:00+01:00,MW,7.768
Garngoch,2024-04-30T16:35:00+01:00,MW,7.654000000000001
Garngoch,2024-04-30T16:40:00+01:00,MW,7.604000000000001
Garngoch,2024-04-30T16:45:00+01:00,MW,7.612
Garngoch,2024-04-30T16:50:00+01:00,MW,7.648
Garngoch,2024-04-30T16:55:00+01:00,MW,7.7170000000000005
Garngoch,2024-04-30T17:00:00+01:00,MW,7.779
Garngoch,2024-04-30T17:05:00+01:00,MW,7.828
Garngoch,2024-04-30T17:10:00+01:00,MW,8.074000000000002
Garngoch,2024-04-30T17:15:00+01:00,MW,8.024
Garngoch,2024-04-30T17:20:00+01:00,MW,8.216
Garngoch,2024-04-30T17:25:00+01:00,MW,8.207
Garngoch,2024-04-30T17:30:00+01:00,MW,8.210999999999999
Garngoch,2024-04-30T17:35:00+01:00,MW,8.299
Garngoch,2024-04-30T17:40:00+01:00,MW,8.282
Garngoch,2024-04-30T17:45:00+01:00,MW,8.271
Garngoch,2024-04-30T17:50:00+01:00,MW,8.41
Garngoch,2024-04-30T17:55:00+01:00,MW,8.311
Garngoch,2024-04-30T18:00:00+01:00,MW,8.319
Garngoch,2024-04-30T18:05:00+01:00,MW,8.263
Garngoch,2024-04-30T18:10:00+01:00,MW,8.129000000000001
Garngoch,2024-04-30T18:15:00+01:00,MW,8.049
Garngoch,2024-04-30T18:20:00+01:00,MW,8.126999999999999
Garngoch,2024-04-30T18:25:00+01:00,MW,8.389
Garngoch,2024-04-30T18:30:00+01:00,MW,8.248
Garngoch,2024-04-30T18:35:00+01:00,MW,8.302
Garngoch,2024-04-30T18:40:00+01:00,MW,8.152000000000001
Garngoch,2024-04-30T18:45:00+01:00,MW,7.993
Garngoch,2024-04-30T18:50:00+01:00,MW,8.086
Garngoch,2024-04-30T18:55:00+01:00,MW,8.108
Garngoch,2024-04-30T19:00:00+01:00,MW,8.084
Garngoch,2024-04-30T19:05:00+01:00,MW,8.143999999999998
Garngoch,2024-04-30T19:10:00+01:00,MW,8.191
Garngoch,2024-04-30T19:15:00+01:00,MW,8.041
Garngoch,2024-04-30T19:20:00+01:00,MW,7.954
Garngoch,2024-04-30T19:25:00+01:00,MW,7.936
Garngoch,2024-04-30T19:30:00+01:00,MW,7.949999999999999
Garngoch,2024-04-30T19:35:00+01:00,MW,7.984000000000001
Garngoch,2024-04-30T19:40:00+01:00,MW,7.964000000000002
Garngoch,2024-04-30T19:45:00+01:00,MW,7.76
Garngoch,2024-04-30T19:50:00+01:00,MW,7.692
Garngoch,2024-04-30T19:55:00+01:00,MW,7.602
Garngoch,2024-04-30T20:00:00+01:00,MW,7.561000000000001
Garngoch,2024-04-30T20:05:00+01:00,MW,7.484
Garngoch,2024-04-30T20:10:00+01:00,MW,7.566000000000001
Garngoch,2024-04-30T20:15:00+01:00,MW,7.696
Garngoch,2024-04-30T20:20:00+01:00,MW,7.815000000000001
Garngoch,2024-04-30T20:25:00+01:00,MW,7.7250000000000005
Garngoch,2024-04-30T20:30:00+01:00,MW,7.73
Garngoch,2024-04-30T20:35:00+01:00,MW,7.784
Garngoch,2024-04-30T20:40:00+01:00,MW,7.756
Garngoch,2024-04-30T20:45:00+01:00,MW,7.575
Garngoch,2024-04-30T20:50:00+01:00,MW,7.475999999999999
Garngoch,2024-04-30T20:55:00+01:00,MW,7.359
Garngoch,2024-04-30T21:00:00+01:00,MW,7.337
Garngoch,2024-04-30T21:05:00+01:00,MW,7.321999999999999
Garngoch,2024-04-30T21:10:00+01:00,MW,7.241999999999999
Garngoch,2024-04-30T21:15:00+01:00,MW,7.112
Garngoch,2024-04-30T21:20:00+01:00,MW,7.0969999999999995
Garngoch,2024-04-30T21:25:00+01:00,MW,6.952999999999999
Garngoch,2024-04-30T21:30:00+01:00,MW,6.904
Garngoch,2024-04-30T21:35:00+01:00,MW,6.782
Garngoch,2024-04-30T21:40:00+01:00,MW,6.767
Garngoch,2024-04-30T21:45:00+01:00,MW,6.703999999999999
Garngoch,2024-04-30T21:50:00+01:00,MW,6.561999999999999
Garngoch,2024-04-30T21:55:00+01:00,MW,6.486
Garngoch,2024-04-30T22:00:00+01:00,MW,6.435
Garngoch,2024-04-30T22:05:00+01:00,MW,6.408000000000001
Garngoch,2024-04-30T22:10:00+01:00,MW,6.261
Garngoch,2024-04-30T22:15:00+01:00,MW,6.101999999999999
Garngoch,2024-04-30T22:20:00+01:00,MW,5.999
Garngoch,2024-04-30T22:25:00+01:00,MW,5.944000000000001
Garngoch,2024-04-30T22:30:00+01:00,MW,5.986000000000001
Garngoch,2024-04-30T22:35:00+01:00,MW,5.908
Garngoch,2024-04-30T22:40:00+01:00,MW,5.837
Garngoch,2024-04-30T22:45:00+01:00,MW,5.761
Garngoch,2024-04-30T22:50:00+01:00,MW,5.628
Garngoch,2024-04-30T22:55:00+01:00,MW,5.526
Garngoch,2024-04-30T23:00:00+01:00,MW,5.412999999999999
Garngoch,2024-04-30T23:05:00+01:00,MW,5.362
Garngoch,2024-04-30T23:10:00+01:00,MW,5.109999999999999
Garngoch,2024-04-30T23:15:00+01:00,MW,5.037999999999999
Garngoch,2024-04-30T23:20:00+01:00,MW,5.024
Garngoch,2024-04-30T23:25:00+01:00,MW,5.019000000000001
Garngoch,2024-04-30T23:30:00+01:00,MW,4.907
Garngoch,2024-04-30T23:35:00+01:00,MW,4.866
Garngoch,2024-04-30T23:40:00+01:00,MW,4.772
Garngoch,2024-04-30T23:45:00+01:00,MW,4.803999999999999
Garngoch,2024-04-30T23:50:00+01:00,MW,4.793
Garngoch,2024-04-30T23:55:00+01:00,MW,4.741
Garngoch,2024-05-01T00:00:00+01:00,MW,4.641
